Theta_e
319 319 321 320 319 322 325 324 323 323 322 318 318 320 319 319 319 319 319 319 319 320 319 318 319 319 320 320 319 320 319 319 318 317 317 321 318 316 318 318 319 319 318 319 322 324 324 325 326 327 327 328 327 326 326 327 330 331 331 332 332 331 333 332 328 327 329 330 330 329 328 328 327 327 325 322 319 319 320 320 319 317 313 310 309 308 308 307 308 310 313 321 328 331 335 335 338
318 319 320 321 321 324 327 325 322 320 319 317 317 320 319 319 320 320 320 320 320 319 317 318 318 319 319 318 318 318 319 319 319 319 318 317 316 316 316 316 318 319 319 320 322 322 322 323 324 325 327 328 327 326 326 326 328 329 330 331 330 331 333 331 327 326 327 329 330 329 329 329 328 328 327 322 319 321 325 325 323 318 312 308 308 308 307 306 308 310 313 324 329 331 335 337 338
317 318 320 322 323 324 327 324 320 318 316 315 317 320 319 319 320 319 319 319 319 317 316 317 317 318 318 318 318 318 319 320 318 318 317 315 315 316 315 314 316 318 319 320 321 322 322 322 322 323 324 325 325 324 325 325 327 328 329 330 330 332 333 330 327 326 327 328 328 329 330 330 329 329 327 322 320 324 328 328 328 327 323 317 309 307 307 307 308 311 318 327 331 332 334 338 338
316 319 319 321 325 324 325 324 320 318 316 315 316 319 319 319 319 318 319 318 317 316 316 317 318 318 318 319 318 318 318 318 317 316 316 315 315 315 314 314 315 317 318 319 320 321 321 320 320 321 321 322 322 323 324 324 326 327 328 329 330 332 332 328 327 328 328 328 329 330 331 331 330 329 328 328 327 327 329 329 329 330 331 330 321 310 306 308 308 313 325 330 332 333 335 338 337
316 319 319 321 325 323 323 323 321 318 316 316 316 318 318 318 318 318 318 317 316 316 316 317 318 318 317 317 317 317 318 318 317 316 316 315 314 314 314 314 314 315 316 317 318 318 318 318 318 320 321 322 322 322 323 323 324 326 327 327 329 331 330 327 327 329 329 330 329 330 332 332 331 331 331 331 332 331 331 330 329 328 330 332 330 320 308 307 309 316 328 332 332 334 336 337 336
316 319 319 320 322 321 321 320 318 318 317 317 317 318 318 317 317 317 318 317 316 316 316 317 317 317 317 317 316 317 317 317 316 315 315 314 314 313 313 314 314 314 315 315 316 316 317 317 318 320 321 321 322 323 323 323 324 325 326 326 328 329 329 327 328 330 331 331 330 330 331 332 332 332 333 332 331 331 331 331 330 328 328 330 331 329 318 308 308 319 330 333 333 334 338 337 336
315 319 320 320 319 319 321 318 317 318 318 318 317 317 317 317 317 316 317 317 316 315 316 316 316 316 317 317 316 317 316 315 315 314 314 314 313 313 313 314 315 314 314 314 315 316 317 317 317 319 320 320 321 322 323 323 324 324 325 326 327 329 330 329 329 331 332 332 331 329 329 331 331 332 332 332 331 330 330 331 331 328 328 328 329 332 328 313 307 320 331 332 334 335 338 336 336
316 319 320 320 320 319 320 318 318 318 317 317 317 317 316 317 317 315 317 317 316 316 315 314 314 314 316 315 315 316 315 314 314 314 314 313 313 312 312 313 314 314 314 314 314 315 316 316 316 318 318 318 319 321 323 324 324 325 325 326 327 330 331 330 330 331 332 332 331 329 328 329 330 330 330 331 331 330 330 330 331 329 328 328 329 332 331 318 308 321 332 333 334 336 337 335 336
315 318 319 320 321 319 319 318 318 318 317 316 316 317 317 316 316 316 316 317 316 316 315 313 313 314 315 315 315 316 315 315 314 314 314 313 313 312 312 312 313 314 314 314 314 314 314 315 315 316 316 316 317 318 321 324 325 326 326 326 327 330 331 331 331 332 332 331 330 328 327 328 329 329 329 330 330 330 330 330 330 330 328 327 329 331 333 323 310 323 333 334 335 336 337 335 336
316 317 319 321 319 318 318 317 318 317 316 316 316 316 316 315 314 316 316 316 316 315 315 313 312 313 315 315 315 316 315 315 314 314 314 313 313 312 313 312 312 312 313 314 314 314 314 315 315 315 315 315 315 315 317 320 323 326 328 328 328 330 331 332 331 331 331 331 330 328 327 327 328 327 328 328 329 330 329 329 328 330 329 328 330 330 332 325 314 324 334 335 336 336 336 336 336
318 318 318 320 318 316 316 317 318 318 317 316 316 316 315 314 313 315 315 315 315 315 314 312 313 314 314 314 315 316 315 314 314 314 314 313 313 313 313 312 312 312 312 313 314 314 314 314 315 315 315 315 315 314 313 314 317 323 327 329 329 330 330 331 331 331 331 330 329 327 327 326 327 327 326 327 327 329 328 328 328 329 330 330 330 329 330 327 319 326 334 335 336 337 336 337 336
319 319 318 320 318 316 317 317 318 319 318 317 317 315 313 313 313 315 315 315 314 315 314 313 313 313 313 315 316 316 315 314 314 314 314 314 313 313 313 313 312 312 312 312 313 314 314 314 314 314 315 315 315 314 313 312 313 317 324 327 328 330 331 330 330 331 330 330 328 326 326 326 326 326 326 326 326 327 327 327 327 328 329 329 330 330 330 327 322 326 333 336 336 337 337 337 336
319 320 319 319 318 318 318 317 318 319 319 318 316 314 312 313 314 315 315 314 314 314 314 313 313 312 313 315 316 316 315 314 314 314 314 314 313 313 313 313 312 312 312 312 312 313 314 314 314 314 314 315 315 314 313 313 312 313 320 326 326 329 331 330 330 330 330 330 328 326 326 325 325 325 326 326 326 326 327 327 327 327 327 328 329 331 331 327 323 327 332 335 337 338 338 337 336
318 319 319 319 317 318 318 318 319 318 318 317 315 313 312 313 314 313 314 314 315 314 313 312 312 312 313 314 315 317 316 314 314 314 314 313 313 313 313 313 312 312 312 312 312 312 312 314 314 314 314 314 314 314 313 313 312 311 316 324 326 327 329 330 330 329 329 329 328 326 326 326 325 325 325 325 325 326 327 327 327 326 325 326 328 331 333 329 324 328 332 334 336 337 336 336 336
317 318 319 320 317 318 318 318 318 317 317 316 314 312 312 313 313 312 312 313 314 313 312 312 311 312 314 314 315 316 315 314 313 313 313 313 313 313 313 313 312 312 312 312 312 312 312 312 313 313 313 314 314 314 313 312 312 311 313 322 326 327 328 329 330 330 329 329 327 327 326 326 326 326 325 324 325 326 327 327 327 326 325 326 327 330 333 331 327 329 334 336 336 336 335 334 333
316 317 319 319 318 318 318 318 317 317 317 316 313 312 313 313 312 312 312 312 312 312 311 312 311 312 313 313 314 314 313 313 313 313 313 314 314 314 314 313 313 313 312 312 312 312 312 312 312 312 313 313 314 313 313 312 312 311 312 319 325 327 328 327 329 330 330 329 327 327 326 326 326 326 325 324 324 326 327 327 327 326 326 325 325 328 332 332 330 330 334 337 336 335 335 332 330
316 318 319 318 318 318 317 318 317 316 316 316 314 312 313 314 312 312 312 311 311 312 312 312 312 312 313 313 313 313 313 313 313 313 313 313 314 314 314 314 314 313 313 313 312 312 312 312 312 312 312 313 314 313 312 310 311 312 312 317 323 327 328 326 327 329 329 329 328 327 326 326 326 327 326 324 324 326 327 327 327 326 326 324 324 327 331 332 333 333 333 335 335 334 333 331 328
317 319 318 317 317 318 317 317 316 316 316 316 316 313 312 313 312 311 311 312 312 312 313 313 313 313 314 314 313 313 313 313 313 313 313 313 312 313 313 313 313 312 312 312 312 312 312 312 312 312 312 313 313 313 312 310 310 311 313 316 321 326 327 326 326 328 329 329 328 327 326 326 326 327 326 325 325 326 327 327 326 326 325 324 324 327 330 332 334 335 334 335 335 332 330 330 327
318 319 318 318 317 317 316 316 316 315 315 316 316 314 312 312 312 311 311 314 313 313 315 314 314 315 314 314 314 314 314 314 314 313 312 311 311 311 312 312 312 312 312 311 311 311 311 312 312 312 312 312 313 313 312 311 310 311 312 315 319 323 326 326 326 327 329 329 328 327 326 326 326 327 327 326 326 326 326 326 326 326 326 327 328 328 331 333 334 335 336 335 334 330 329 328 326
317 317 318 318 317 316 314 315 315 314 314 315 315 313 312 311 310 310 311 313 314 315 315 314 314 314 314 314 314 314 314 314 314 312 310 309 309 310 310 311 311 311 311 310 310 310 311 311 311 312 312 312 313 314 313 312 311 311 312 315 317 321 324 326 326 327 329 329 328 326 325 325 326 327 327 326 325 325 325 326 326 327 327 328 330 330 331 332 332 334 334 333 331 328 327 324 322
316 316 318 317 314 315 315 314 314 313 313 313 314 313 312 311 309 310 311 313 315 315 314 314 313 313 313 314 314 314 314 314 313 310 309 308 308 308 309 309 309 309 310 310 311 311 310 310 310 311 311 312 313 313 313 313 312 311 311 314 316 320 323 325 325 326 329 329 328 326 324 325 326 327 327 326 325 325 325 326 328 329 328 329 330 330 331 331 331 332 330 329 328 326 324 321 320
315 316 317 315 313 314 314 313 312 312 312 312 312 313 312 311 310 310 311 312 314 314 314 313 312 313 313 313 313 313 313 312 311 309 308 307 306 306 307 307 307 308 308 309 309 309 309 310 310 310 310 311 312 313 313 313 312 311 311 313 317 320 323 325 325 326 328 329 328 326 324 325 327 326 326 326 325 325 326 327 328 330 329 329 330 330 330 329 329 329 326 325 325 323 321 320 320
315 316 315 314 313 314 313 312 311 311 311 312 312 312 310 311 312 311 310 312 313 313 312 312 312 312 312 312 312 313 312 310 308 307 305 305 304 305 305 305 305 306 307 307 308 308 308 308 308 309 310 310 311 312 313 313 312 312 311 311 317 321 322 325 325 325 327 328 328 326 323 325 326 325 325 325 325 325 326 326 328 330 329 329 329 330 330 328 327 326 323 322 322 322 321 321 322
313 315 314 313 312 312 312 311 310 310 309 311 311 310 310 312 312 310 311 312 312 312 312 312 311 311 311 311 312 312 309 307 306 305 304 304 303 303 303 304 304 304 305 305 306 307 307 307 307 308 308 310 311 311 313 314 313 312 311 311 315 321 323 324 325 325 326 327 327 325 322 323 324 323 324 324 324 325 325 326 327 329 328 329 329 329 329 328 326 325 323 321 320 322 322 321 321
313 314 314 312 312 311 311 310 309 309 309 310 309 310 312 312 310 310 312 312 311 312 312 311 310 310 311 311 311 309 307 305 305 304 303 303 302 303 303 303 303 303 304 304 305 306 306 306 307 307 308 309 310 310 312 314 314 313 313 313 313 318 323 324 324 326 325 326 327 325 322 323 323 322 323 323 324 324 324 325 326 327 327 328 328 328 328 327 326 323 322 320 318 319 320 319 318
313 313 313 312 312 311 310 309 309 309 309 310 310 312 313 310 309 311 311 311 312 312 312 310 309 310 311 310 308 306 305 304 304 304 303 302 302 301 301 301 302 302 303 303 304 305 306 306 306 306 307 307 310 313 314 314 317 318 316 316 315 318 322 324 325 326 325 326 327 325 323 323 322 321 321 322 323 324 323 323 325 326 326 327 328 327 327 326 325 322 319 319 317 317 319 318 317
311 311 311 311 312 311 310 310 309 309 308 310 311 313 313 310 310 312 311 311 312 312 312 310 309 310 309 308 306 305 304 304 303 302 302 301 300 300 300 300 300 300 301 302 303 303 304 305 306 306 306 306 310 316 317 315 318 320 319 318 320 321 320 323 326 326 325 326 327 326 325 324 322 320 320 322 322 323 323 321 324 326 325 327 327 327 326 325 324 321 318 318 317 316 317 318 318
310 309 311 311 312 311 310 311 310 310 310 310 310 311 311 310 311 313 311 311 312 312 312 311 310 309 307 306 304 304 304 303 302 301 301 300 300 300 299 299 298 299 300 300 302 303 303 304 304 306 306 306 309 313 316 317 317 318 319 318 321 322 320 323 326 326 326 327 327 327 326 324 322 320 320 322 322 323 322 321 323 325 325 326 326 326 325 325 323 320 318 318 317 316 316 316 317
308 308 311 313 314 312 311 311 311 311 310 309 309 311 312 311 312 313 312 312 312 311 311 310 309 308 306 305 304 303 302 301 301 300 300 300 300 299 299 299 298 298 299 299 300 301 302 303 304 305 306 306 307 310 313 315 316 317 318 318 320 321 320 322 325 327 326 326 327 327 326 325 323 321 320 322 323 322 321 319 320 323 325 326 326 325 324 324 322 319 318 317 316 316 315 315 316
309 308 310 314 314 313 313 312 312 312 310 309 310 312 313 313 313 312 312 311 311 310 310 309 307 306 305 304 303 303 302 300 300 299 299 299 299 299 298 298 298 298 298 298 299 299 300 302 303 304 305 306 307 308 310 312 316 318 317 318 320 320 321 322 323 326 327 326 327 327 327 325 323 321 320 322 322 321 320 318 318 322 325 326 325 323 323 324 322 320 319 317 316 315 314 315 315
311 310 311 314 313 314 315 312 312 312 310 310 312 313 313 313 313 312 312 311 310 309 309 307 306 305 304 304 303 302 301 300 299 299 298 298 298 298 298 298 297 297 297 297 298 298 299 300 301 303 304 305 306 307 310 312 315 317 317 317 318 319 321 323 322 325 326 326 326 327 327 325 324 322 321 321 321 321 320 317 318 323 326 325 323 321 321 323 322 319 318 317 318 316 314 315 315
312 312 313 316 314 314 315 311 311 311 310 311 313 313 313 313 313 313 312 311 309 309 308 306 305 304 304 303 302 301 300 300 299 298 298 297 297 297 298 297 297 297 297 297 297 297 298 298 299 300 302 304 305 306 308 312 315 317 317 316 318 318 318 319 322 325 326 325 325 327 327 325 324 323 321 321 320 320 320 317 318 323 325 325 323 320 319 320 321 318 317 318 317 315 312 314 319
314 314 314 316 314 314 314 311 310 311 311 311 312 312 313 313 313 312 311 310 309 308 306 304 304 303 303 302 301 301 300 299 299 298 297 297 297 297 297 297 297 296 297 297 297 297 297 298 298 299 300 301 303 305 306 309 313 316 317 316 318 321 320 318 319 323 326 326 325 326 326 325 324 323 322 321 319 320 320 318 317 320 324 325 325 322 318 316 318 317 317 319 318 315 313 315 320
315 315 315 315 314 313 314 312 310 310 310 310 311 312 312 312 312 312 311 309 308 306 304 303 303 302 302 301 301 300 300 299 298 298 297 297 297 297 297 297 296 296 297 297 297 297 297 297 298 298 299 300 301 303 305 306 309 314 317 317 316 319 321 320 319 319 322 324 325 325 325 324 324 323 323 321 319 319 320 320 317 316 320 323 325 323 318 313 314 316 317 320 320 318 319 319 320
314 314 314 314 313 313 313 313 311 310 309 310 311 311 311 311 311 311 310 308 307 305 304 302 302 301 301 300 300 300 299 299 298 298 297 297 297 296 296 297 297 296 296 296 297 298 297 297 298 298 299 300 301 302 303 305 306 309 313 316 315 316 320 321 319 318 318 320 322 324 324 323 324 323 323 321 319 319 320 321 319 318 317 320 323 323 319 312 311 315 316 319 319 318 320 321 319
312 312 312 313 314 313 312 312 311 309 308 310 311 310 310 310 310 309 308 307 306 305 303 302 301 301 300 300 300 300 299 299 298 298 297 297 297 296 296 296 297 296 296 295 296 297 297 298 298 298 298 299 301 302 302 303 305 306 308 312 314 315 317 320 321 319 317 317 319 322 324 324 323 323 323 322 321 320 321 320 321 321 319 320 323 323 321 316 311 312 314 316 319 318 318 320 318
310 311 312 313 314 313 312 311 310 308 307 309 310 309 309 309 308 308 306 305 304 304 303 302 301 300 300 300 300 299 299 298 298 297 297 297 296 296 295 295 296 297 296 295 295 296 296 297 297 298 298 298 300 301 303 304 304 305 306 307 311 313 314 317 320 321 320 319 318 319 321 324 324 322 323 323 322 321 321 320 321 322 321 322 324 322 322 320 311 310 314 317 319 319 318 319 319
310 312 313 313 313 313 311 310 310 308 307 308 308 308 308 309 308 307 304 302 302 302 302 300 300 300 299 299 299 298 298 297 297 297 296 296 296 296 295 295 296 296 296 295 295 295 295 296 297 298 298 298 298 300 301 303 304 304 305 305 307 310 312 315 317 320 321 320 319 318 318 321 323 322 323 322 322 322 321 321 321 321 321 322 324 322 321 320 312 309 314 318 320 319 318 319 317
311 312 313 313 313 311 311 310 309 307 306 306 307 307 307 308 307 306 303 301 300 300 300 300 299 299 299 299 298 297 297 297 296 296 296 296 296 296 295 295 295 296 296 296 295 294 295 295 296 297 297 297 298 298 299 301 303 304 304 305 306 307 309 312 315 317 319 319 319 320 319 318 320 321 322 323 323 322 321 321 321 320 320 320 322 321 320 320 314 310 312 317 320 319 318 319 314
312 312 312 312 311 309 310 309 307 306 306 306 307 307 306 307 307 304 302 300 299 298 298 298 298 299 299 299 298 296 296 296 296 296 296 296 296 295 295 295 295 296 297 296 295 295 294 294 295 296 296 297 297 297 297 299 300 303 304 305 305 306 308 310 312 314 316 318 318 320 321 320 319 320 322 323 323 322 321 321 321 321 320 319 320 320 319 320 316 312 313 316 320 320 319 318 315
312 311 310 310 308 308 308 307 306 306 306 306 305 305 306 306 306 304 302 299 298 297 297 297 297 298 298 297 296 295 295 295 295 295 295 295 295 295 295 295 295 295 296 296 296 295 295 294 294 294 295 296 296 296 296 296 297 300 302 304 305 306 307 309 311 312 314 317 318 319 322 322 321 320 321 322 322 322 322 321 321 321 320 318 318 319 319 320 317 313 314 316 319 320 317 315 316
311 310 308 307 307 307 306 306 306 305 305 306 305 303 305 306 307 305 302 299 298 297 297 297 297 297 296 295 295 294 294 294 294 294 294 294 294 294 294 294 294 295 295 296 296 295 295 295 294 294 294 294 295 295 296 296 296 296 298 301 303 305 306 307 310 311 312 315 318 318 319 322 322 321 321 321 320 321 322 322 321 321 320 317 317 320 319 317 317 316 315 316 319 318 314 313 314
311 309 306 306 307 306 306 307 306 304 305 307 305 303 303 305 307 304 301 298 297 297 297 296 296 296 295 295 294 294 294 294 294 293 293 293 293 293 293 293 294 294 294 295 296 295 295 295 294 294 294 294 294 294 294 295 296 295 295 296 299 301 304 306 308 310 311 312 315 318 318 319 321 322 322 321 320 320 322 322 321 321 320 317 317 321 319 315 316 317 316 317 319 319 315 313 314
311 307 305 306 306 305 306 307 306 305 306 306 306 305 303 306 307 303 300 299 297 296 296 296 296 295 295 294 294 294 293 293 293 293 293 293 293 293 293 293 293 294 294 294 294 295 295 295 295 294 294 294 294 294 294 294 295 296 295 295 295 298 301 304 306 308 309 309 311 317 320 318 319 321 322 322 321 321 321 321 321 320 319 316 317 321 320 315 315 317 317 316 318 319 318 315 315
308 304 304 305 305 305 306 306 305 305 305 304 305 306 305 307 307 302 300 298 296 295 295 295 296 295 294 294 294 293 293 293 293 293 293 293 293 293 293 293 293 293 294 294 294 294 294 294 294 294 294 294 294 294 294 293 294 295 296 295 294 295 298 302 305 307 308 309 309 313 319 320 318 319 321 322 322 321 320 320 320 319 318 316 316 320 319 316 315 315 316 316 317 318 318 317 316
304 303 304 305 305 306 306 305 304 304 304 304 304 305 304 304 304 302 299 297 295 295 295 295 296 295 294 294 293 293 293 293 293 293 293 292 292 292 292 292 293 293 293 293 294 294 294 294 294 294 294 294 294 294 294 294 293 294 295 296 295 294 295 299 303 306 307 309 309 310 315 320 319 319 320 321 321 321 319 319 319 317 317 315 314 313 314 315 316 315 315 316 316 316 317 317 316
302 303 305 305 304 304 303 303 303 303 304 305 304 302 300 299 301 300 297 295 294 294 294 295 295 294 294 294 293 293 293 293 293 292 292 292 292 292 292 292 292 293 293 293 293 294 294 294 293 294 293 293 293 294 294 294 294 293 294 295 295 294 294 296 300 304 306 307 308 308 311 317 320 319 319 320 321 321 319 319 319 316 314 314 313 311 311 314 317 317 316 316 316 315 316 317 316
303 304 303 302 302 302 301 301 302 302 303 304 302 299 298 298 299 297 295 294 294 294 294 294 294 294 294 293 293 293 293 292 292 292 292 292 292 292 292 292 292 292 293 293 293 293 294 294 294 294 293 293 293 293 293 294 294 293 293 295 295 295 294 294 297 301 304 305 306 307 309 313 318 319 319 319 320 321 320 319 319 316 314 313 314 313 312 314 317 318 317 316 315 314 315 316 316
303 303 301 301 300 301 301 301 301 301 303 303 300 298 297 298 299 297 295 294 294 295 294 294 294 294 293 293 293 293 292 292 292 292 292 292 292 292 292 292 292 292 292 293 293 293 293 293 293 294 294 293 293 293 292 293 294 294 293 294 295 295 294 294 294 298 301 303 303 306 307 310 315 319 320 319 319 320 320 319 319 318 316 315 315 314 314 314 315 318 318 316 315 314 314 315 315
301 301 300 299 298 298 300 301 300 300 301 300 298 298 297 299 299 297 295 294 295 295 294 294 294 294 293 293 293 292 292 292 292 292 292 292 292 292 292 292 292 292 292 292 292 293 293 293 293 293 293 293 293 293 292 292 293 294 293 293 294 295 295 294 294 295 298 301 302 303 306 308 311 316 320 319 319 319 320 318 319 319 318 317 316 316 316 314 314 316 318 317 315 314 314 313 313
300 301 300 298 298 298 299 299 298 299 299 299 298 298 298 299 299 296 295 295 295 295 294 294 294 293 293 293 292 292 292 292 292 292 292 292 292 292 292 292 292 292 292 292 292 292 292 293 293 293 293 293 293 293 293 292 293 293 293 292 293 295 295 294 293 294 296 299 300 302 305 308 309 312 317 319 319 319 320 319 318 319 319 317 316 316 316 316 316 317 317 316 316 316 315 313 312
299 299 299 299 299 299 299 299 298 297 297 298 298 298 299 298 297 295 295 295 295 295 294 294 293 293 293 292 292 292 292 292 292 291 291 291 292 292 292 292 292 292 292 292 292 292 292 292 292 293 293 293 293 293 293 293 293 293 293 292 293 294 295 294 294 294 295 297 298 300 303 307 308 309 314 318 319 318 319 320 319 318 319 318 316 316 317 317 317 318 317 317 316 315 314 313 312
299 298 298 298 298 297 297 298 298 296 296 297 297 297 298 297 295 294 295 295 294 294 294 293 293 293 292 292 292 292 291 291 291 291 291 291 291 292 292 292 292 292 291 291 291 291 291 291 291 292 292 292 293 293 293 293 293 293 293 292 292 293 295 295 294 293 294 295 297 298 301 305 307 308 311 317 319 317 318 319 319 317 319 319 317 316 316 317 318 318 318 317 316 315 314 313 313
298 297 297 297 296 296 295 295 296 296 295 296 296 296 296 296 296 295 294 294 294 293 293 293 293 293 292 292 292 291 291 291 291 291 291 291 291 291 291 291 291 291 291 291 291 291 291 291 291 292 292 292 292 293 293 293 293 293 292 292 292 293 294 295 294 293 293 294 296 297 299 303 306 307 309 314 318 318 317 319 318 318 318 318 317 317 316 317 317 317 317 316 316 316 315 314 314
297 297 297 296 295 295 294 293 294 294 294 295 296 296 295 296 296 294 294 293 293 293 292 292 292 292 292 292 291 291 291 291 291 291 291 291 291 291 291 291 291 290 290 290 290 290 290 291 291 291 292 292 292 292 292 293 293 292 292 292 292 292 294 295 294 293 293 293 294 296 298 301 305 307 308 311 316 318 317 318 318 317 317 317 317 317 316 316 317 316 315 315 316 316 315 315 315
295 296 296 295 294 293 293 293 293 293 294 294 295 295 295 295 294 293 293 293 292 292 292 292 292 292 292 292 291 291 291 291 291 291 291 291 291 290 290 290 289 289 289 289 289 289 290 290 291 291 292 292 292 292 292 293 293 293 292 292 292 292 293 295 294 293 294 293 294 295 297 299 303 306 307 308 312 317 317 317 318 317 317 317 316 316 316 316 316 315 315 315 316 317 316 316 315
295 295 295 295 294 293 293 293 292 292 293 293 293 294 295 295 293 293 293 293 292 292 292 292 292 292 291 291 291 291 291 291 291 291 291 291 290 290 289 289 288 288 287 287 287 287 287 288 289 290 291 291 292 292 292 292 293 292 292 292 292 292 293 294 294 293 294 293 293 294 295 298 301 304 307 306 308 316 317 316 317 317 316 317 316 315 315 315 315 315 316 317 317 317 317 316 315
296 295 295 294 294 293 293 293 292 292 292 292 292 293 294 294 293 293 293 293 293 292 292 292 292 292 291 291 291 291 291 291 290 290 290 290 289 288 288 287 286 285 284 284 283 283 283 285 286 287 288 289 290 291 292 292 292 292 292 292 292 292 293 294 294 293 294 293 293 294 294 296 300 302 306 306 306 313 318 317 316 317 316 316 316 316 315 314 315 316 317 317 317 318 318 317 316
Wind_Speed
6 4 3 3 2 3 2 2 2 1 2 0 2 2 2 0 3 3 2 1 2 0 3 5 4 7 6 3 4 7 7 9 9 6 7 9 15 21 22 23 20 16 12 9 9 11 13 14 16 17 18 19 19 18 18 19 20 20 21 21 20 18 16 16 16 17 18 17 16 16 17 17 18 18 18 20 21 21 22 21 21 22 21 19 18 19 19 18 19 19 19 20 23 25 23 23 27
6 4 3 3 2 2 2 3 2 1 1 1 2 2 3 1 2 3 4 4 4 3 2 5 6 9 10 8 6 8 10 14 15 14 17 20 23 24 23 22 20 15 9 8 9 9 11 12 13 15 17 18 19 19 19 20 20 22 22 22 21 19 18 18 17 18 19 18 17 17 17 17 18 17 15 15 16 16 17 17 17 18 18 17 18 19 19 19 19 19 19 20 23 25 23 25 27
6 4 2 2 2 1 2 3 1 1 1 2 2 2 2 2 3 6 7 7 6 5 4 4 7 9 10 9 8 8 9 12 17 19 21 21 19 19 19 17 16 13 10 10 10 10 10 11 12 14 16 17 19 19 20 21 22 23 23 23 22 20 20 19 18 19 18 18 18 17 16 16 17 16 14 14 13 13 15 15 15 15 15 16 17 19 20 19 19 19 19 20 24 25 24 27 29
5 4 3 2 1 1 1 1 1 2 2 2 2 3 1 5 7 8 7 6 8 8 5 3 5 7 9 10 7 7 11 12 16 16 16 18 18 18 19 16 14 13 13 13 13 13 14 15 15 16 17 18 19 20 21 22 23 24 24 24 23 22 21 20 19 19 17 17 18 17 16 16 18 17 15 15 14 14 15 15 15 16 16 16 16 19 20 19 20 20 20 22 25 26 25 27 30
5 3 3 1 2 0 0 0 1 2 3 2 2 3 4 5 7 9 8 8 10 8 6 4 4 5 8 11 7 5 10 11 14 15 16 20 21 20 19 17 15 14 15 16 17 18 19 19 18 19 20 20 21 22 23 23 24 25 25 25 23 23 22 21 20 19 17 18 18 17 17 18 18 16 15 15 15 15 16 17 16 16 17 17 17 18 21 21 20 21 21 24 26 27 27 29 30
5 3 4 4 3 1 1 0 1 2 3 1 3 4 6 6 7 10 11 10 7 5 6 6 6 6 6 10 12 13 14 12 14 18 21 24 23 23 21 18 17 16 17 17 18 18 19 19 18 20 21 22 23 24 24 25 26 26 26 26 25 25 23 21 21 20 19 19 19 19 19 19 17 16 16 17 16 17 17 18 18 17 17 18 17 18 20 21 22 22 22 26 26 26 30 32 32
4 2 2 4 3 0 1 2 2 2 3 0 4 5 7 7 6 9 10 8 3 2 5 7 7 8 8 8 11 16 17 16 19 21 21 23 23 24 23 20 19 18 18 18 18 18 18 17 18 20 22 23 24 25 26 26 27 27 27 27 27 25 23 22 22 21 21 21 21 21 21 19 18 17 17 18 18 18 18 19 19 17 17 18 18 18 20 22 23 23 24 28 27 26 31 34 34
4 1 2 1 1 0 1 1 1 1 1 1 4 5 7 7 5 6 6 5 2 3 4 7 6 6 9 7 9 17 21 20 19 20 19 20 20 21 22 22 22 21 21 20 20 19 18 18 19 20 22 23 24 26 27 28 28 28 29 28 28 26 24 23 23 23 23 23 23 22 21 20 19 18 18 19 19 19 19 19 19 18 17 18 18 19 20 21 23 24 26 29 27 30 33 34 35
4 1 1 1 1 0 0 1 1 0 1 2 4 6 7 7 4 4 5 4 4 5 4 6 4 5 10 9 12 19 21 19 18 18 17 16 17 18 19 20 21 23 22 21 21 21 20 19 20 21 22 23 24 25 27 28 29 29 29 29 29 27 26 25 24 24 25 25 24 23 22 21 21 20 20 20 20 19 19 20 19 17 17 18 19 19 19 21 24 26 28 29 27 33 37 36 36
3 2 0 1 1 1 0 1 0 1 2 2 5 7 6 4 3 4 5 6 6 5 6 7 6 11 14 14 16 17 16 19 19 16 14 14 16 18 19 18 19 21 23 23 23 23 22 21 21 22 23 24 25 25 26 27 29 30 30 29 29 28 27 27 26 26 26 26 23 23 23 23 22 21 20 20 20 20 20 21 20 18 17 18 19 20 20 21 24 27 29 29 30 35 38 37 36
4 2 0 2 1 1 1 2 2 1 2 3 4 5 4 2 3 4 4 7 8 6 8 8 6 10 13 13 14 16 19 19 17 14 14 16 18 20 20 18 18 19 21 22 23 24 24 23 23 24 24 25 26 26 27 28 29 30 31 30 29 28 29 28 28 27 28 26 24 24 24 24 24 22 21 21 21 21 21 21 21 19 18 18 20 20 21 22 25 29 30 29 32 38 39 37 37
4 1 2 2 1 1 2 3 4 4 3 2 0 2 1 1 2 6 5 7 9 10 8 6 6 8 9 10 12 17 19 17 17 18 19 21 22 22 21 19 18 18 20 22 23 25 26 26 25 26 26 27 27 28 28 28 29 30 32 32 31 29 29 30 29 29 29 27 25 25 24 24 24 23 23 22 23 23 22 22 22 20 20 19 19 20 21 23 26 30 30 29 34 38 39 40 39
3 0 3 1 1 1 1 2 4 5 2 1 2 2 1 1 3 10 11 9 9 10 8 6 9 9 9 12 15 15 15 18 21 22 23 24 24 24 23 22 20 19 19 21 23 25 26 27 28 28 28 28 28 28 29 30 29 30 32 33 33 31 30 30 30 30 30 28 26 25 25 25 25 24 24 23 23 23 23 23 23 22 21 20 19 20 22 25 27 30 30 30 37 41 41 44 44
1 1 3 0 0 1 1 3 2 4 2 4 2 1 1 4 6 9 11 13 8 6 10 12 10 8 8 10 13 13 16 23 23 24 25 25 26 26 26 25 24 22 21 21 23 25 26 28 29 29 30 30 29 29 30 30 30 31 32 33 34 33 32 31 31 32 31 29 26 25 25 25 25 24 24 24 23 23 23 23 23 22 21 21 20 21 22 26 30 31 30 30 37 43 44 46 46
1 2 1 1 1 1 2 1 1 3 2 4 2 1 2 4 7 7 7 11 9 11 15 14 7 5 7 8 12 18 22 26 24 26 27 26 27 28 28 28 27 26 24 23 23 24 26 27 29 30 31 31 31 31 31 31 31 32 32 32 34 35 33 32 31 32 32 29 27 26 26 26 25 24 24 24 24 24 24 23 23 21 21 22 21 21 21 26 31 30 29 31 37 42 43 43 43
2 2 1 1 2 1 1 1 0 2 2 4 2 3 3 2 6 6 6 11 13 16 15 11 9 10 14 15 19 24 25 26 27 28 26 25 27 30 32 32 30 29 28 27 26 26 26 27 29 30 32 32 32 31 31 32 31 31 31 31 34 36 35 33 32 33 32 30 29 28 27 26 25 25 24 24 24 23 24 24 22 21 21 22 22 22 20 23 30 31 30 34 39 43 43 40 38
1 2 2 1 1 1 2 1 0 3 6 5 1 3 6 5 5 8 13 14 13 16 16 14 13 14 18 20 22 26 27 29 29 28 26 24 27 32 36 36 35 33 32 31 29 28 28 28 29 30 32 33 33 32 32 31 31 31 31 31 33 35 36 35 33 34 33 31 30 29 29 28 26 26 24 24 24 23 24 24 22 21 21 21 23 22 21 22 27 31 32 37 39 41 44 40 34
2 2 2 1 1 1 2 1 1 4 8 10 7 4 6 7 6 11 14 11 10 14 16 15 16 16 21 26 30 32 31 30 29 27 26 25 28 33 37 38 38 37 36 36 34 32 30 30 30 31 33 33 34 34 32 31 31 31 31 32 33 35 37 37 35 34 33 32 31 30 30 29 27 27 25 24 24 23 23 23 22 21 20 21 22 22 21 21 25 30 32 37 40 40 42 40 35
1 1 2 0 1 1 1 1 1 3 8 16 16 7 7 6 6 10 10 11 12 10 10 13 18 22 26 30 34 37 35 33 31 29 29 28 30 32 34 34 34 34 34 35 35 35 33 33 33 33 33 34 35 35 33 32 32 32 32 33 34 35 37 38 37 35 34 33 32 31 31 31 29 27 26 25 23 23 23 23 22 21 20 19 21 22 20 19 22 29 35 40 42 42 42 39 37
1 2 3 1 2 0 1 2 1 3 8 15 16 11 10 5 5 7 7 13 11 7 12 15 18 23 27 31 32 35 36 36 37 35 33 33 33 32 32 32 32 31 30 31 32 32 33 34 35 35 35 36 37 37 35 34 33 33 33 34 36 36 37 38 38 37 35 34 33 32 31 32 31 28 27 26 24 24 24 23 21 21 19 18 20 20 18 17 18 27 40 47 45 43 43 40 38
1 3 3 3 3 1 2 2 2 2 5 12 16 14 10 7 7 6 6 9 7 10 16 16 17 21 26 29 28 29 30 34 37 36 34 35 34 32 31 31 32 31 30 29 28 27 28 30 31 33 35 37 39 40 39 36 36 35 35 36 37 37 36 37 38 38 36 35 34 33 32 32 31 28 28 26 25 25 23 21 20 20 18 18 18 16 15 12 14 24 35 48 51 46 45 45 41
2 3 3 2 2 1 3 2 1 1 6 11 15 11 8 10 7 4 6 6 6 11 14 16 19 22 24 25 24 25 26 30 33 33 33 33 32 32 32 31 31 31 30 29 27 25 23 24 25 27 30 33 37 40 41 40 39 38 37 37 37 37 36 35 38 40 38 37 35 34 33 31 30 29 29 27 26 25 22 21 20 20 19 18 17 16 13 7 12 24 27 34 45 44 42 42 39
3 2 2 1 3 2 2 2 2 4 7 10 12 9 8 10 5 3 7 7 7 10 13 17 21 21 21 21 21 23 26 28 29 29 31 32 33 34 34 35 36 35 33 32 30 27 23 21 22 22 24 27 31 36 40 42 42 40 39 39 38 38 38 38 39 41 41 39 36 35 33 31 31 31 30 27 27 25 22 21 21 22 21 20 19 17 17 15 18 24 19 15 27 31 31 34 31
3 2 1 1 3 3 3 2 6 8 8 10 12 13 12 8 4 6 8 6 5 9 14 19 19 18 18 18 19 22 24 25 26 28 29 32 35 36 37 38 38 37 36 35 32 30 27 23 21 21 21 23 25 29 34 40 42 42 40 39 39 39 39 40 41 41 40 39 37 35 34 32 32 32 30 28 28 27 23 22 23 23 22 21 21 20 20 21 20 25 23 16 17 19 20 26 26
4 3 3 4 2 2 4 5 8 8 8 11 10 14 12 4 4 6 3 6 9 14 20 20 17 16 17 17 18 20 23 25 27 29 29 32 34 35 37 38 38 38 38 36 35 33 30 27 23 22 22 21 21 24 29 35 39 41 40 38 38 40 41 41 42 42 41 39 37 36 34 32 31 31 31 30 29 28 25 23 24 25 24 22 22 23 24 23 24 26 23 18 18 18 18 20 22
2 5 6 10 8 4 5 4 5 5 5 6 5 12 10 5 4 3 5 9 17 24 21 19 19 16 16 16 19 22 25 28 29 30 31 33 36 38 39 39 39 39 39 37 36 35 33 30 27 24 22 21 21 22 25 29 33 36 36 36 37 39 41 42 42 43 42 40 39 36 35 33 31 31 31 31 30 29 28 26 26 26 24 24 23 24 26 25 26 26 22 19 20 20 21 20 21
3 9 10 13 12 6 3 3 4 2 3 4 2 13 12 6 5 2 8 13 25 28 19 18 19 15 16 19 22 24 27 28 29 32 35 37 39 40 41 42 41 40 40 38 38 37 36 34 30 26 23 22 22 22 23 25 27 32 33 33 34 35 38 42 44 45 43 41 40 38 36 34 33 32 32 32 32 31 30 26 26 26 24 25 27 24 24 23 24 25 24 21 21 21 23 21 19
5 9 11 13 10 2 5 6 2 1 4 5 5 14 11 3 2 4 10 19 26 27 19 18 17 16 19 22 24 25 27 28 31 36 37 36 37 39 41 42 43 42 42 40 38 38 37 36 33 30 26 23 22 21 22 23 24 30 33 33 34 34 36 40 44 46 45 43 41 39 38 35 34 33 32 32 32 31 30 27 26 27 27 27 28 26 24 24 25 26 27 26 24 25 27 25 21
5 5 7 11 7 4 9 7 5 1 4 2 6 9 5 0 3 8 14 21 21 21 16 17 17 19 20 21 23 26 27 30 34 37 36 35 37 40 41 42 44 43 42 41 39 38 37 37 36 33 30 26 22 20 20 22 23 27 32 33 35 37 39 40 43 46 46 44 43 41 39 36 35 34 33 31 32 32 30 28 27 28 28 29 29 26 25 27 27 26 29 32 33 33 33 31 27
3 1 2 7 7 2 7 8 7 2 5 4 4 5 3 3 5 7 14 19 17 16 13 16 16 17 18 20 22 24 27 30 33 35 35 36 39 41 42 43 45 44 43 42 41 39 38 37 36 34 32 29 24 20 18 20 22 24 29 34 37 38 41 42 42 44 47 46 44 43 40 38 36 35 34 33 33 33 31 29 27 28 30 32 31 26 25 27 26 27 30 33 37 38 37 35 34
3 1 2 2 4 4 4 8 8 5 4 8 10 4 5 7 6 7 14 14 14 13 14 16 15 16 17 19 20 22 25 28 31 35 37 38 40 43 43 45 47 46 45 44 43 41 39 37 36 34 33 31 27 22 19 19 20 22 27 33 36 37 39 42 43 43 46 46 45 44 42 39 38 37 36 35 35 35 33 30 28 30 33 33 30 27 28 28 25 28 31 34 37 39 37 36 36
2 2 2 3 3 8 9 6 8 8 5 9 9 4 6 6 8 17 18 11 10 10 16 16 16 17 17 19 20 21 23 27 32 37 42 41 42 43 42 44 47 46 46 45 44 43 41 39 36 35 33 31 29 26 21 19 20 22 25 30 35 37 37 40 42 42 43 45 45 45 44 41 39 39 37 37 37 36 34 32 30 31 33 32 29 27 29 29 27 30 32 35 38 39 37 36 36
2 4 5 5 6 9 9 3 8 11 9 6 4 4 6 5 11 21 18 12 10 16 17 16 17 18 18 18 19 21 23 28 33 38 41 40 41 42 40 42 44 45 45 44 45 44 43 41 38 36 35 33 30 28 25 20 20 22 23 26 32 38 38 37 39 42 42 44 45 46 46 43 41 40 38 38 38 37 35 33 32 32 33 33 30 28 29 30 30 32 34 36 39 40 40 39 39
4 5 5 6 7 8 10 3 5 11 10 6 4 2 5 9 13 19 15 10 16 19 15 17 18 17 18 18 20 22 24 28 31 33 36 36 38 40 40 41 43 43 43 42 42 42 42 42 40 38 35 34 32 29 27 25 22 22 23 24 27 34 38 38 38 41 43 44 44 47 49 45 42 41 39 40 40 38 37 35 34 33 33 33 32 31 30 31 32 34 35 38 40 40 41 42 42
7 7 7 6 6 6 11 9 6 11 10 9 7 1 5 11 12 15 13 15 20 18 15 17 18 17 18 19 20 21 23 26 27 28 32 34 36 39 40 40 40 41 41 40 40 40 41 41 41 40 36 34 34 32 29 27 26 23 23 23 24 28 36 41 41 41 42 44 44 47 50 47 43 42 42 42 41 40 39 37 35 34 34 34 34 33 32 32 34 36 36 40 42 39 39 43 42
8 8 7 7 8 7 9 12 8 12 13 9 7 7 10 11 11 11 14 20 19 17 16 16 16 16 18 18 19 20 23 24 24 26 29 31 34 38 40 40 40 39 39 39 38 38 39 40 42 42 41 37 35 34 32 29 28 28 26 25 24 26 32 39 45 43 40 41 44 46 48 49 47 44 45 43 41 42 41 38 37 37 36 35 37 36 34 34 35 38 39 41 44 43 40 42 43
6 7 6 8 10 6 8 12 6 10 13 9 9 14 10 9 11 10 17 20 18 16 15 15 14 14 15 16 17 20 22 22 24 25 27 29 31 35 38 41 40 39 40 40 39 39 38 38 39 42 44 42 37 35 36 33 30 30 30 29 28 28 28 32 41 44 42 40 41 45 47 49 50 48 46 44 42 43 43 41 39 39 38 38 40 39 36 35 36 39 40 41 44 47 45 44 43
5 5 7 8 8 8 11 11 5 10 11 10 15 17 9 8 11 9 18 18 17 15 14 14 14 14 14 15 17 21 22 23 25 27 29 31 32 33 37 39 38 38 41 42 42 41 39 37 37 39 41 43 41 38 37 36 33 31 31 32 32 32 30 30 35 41 44 43 42 45 47 49 53 52 49 46 45 45 45 43 41 40 41 41 42 40 37 37 38 40 42 42 45 48 48 47 44
4 4 6 7 6 10 9 5 2 9 8 11 16 15 9 8 5 12 17 16 16 15 14 12 13 15 16 17 20 25 27 28 30 31 32 33 33 34 36 37 36 36 38 40 42 42 42 40 39 38 39 41 41 40 38 38 36 33 31 32 33 34 33 31 33 36 40 45 45 46 49 50 51 53 51 49 49 48 47 45 43 42 41 43 45 41 41 41 41 43 44 45 48 49 47 46 45
2 4 4 6 7 9 5 1 7 10 6 8 13 13 9 2 7 13 14 15 16 15 15 14 14 16 17 18 21 27 30 32 33 33 34 35 35 34 35 34 33 34 33 35 40 44 44 43 41 40 40 40 40 40 40 40 39 36 32 31 31 32 34 32 32 35 38 44 47 48 52 54 51 51 53 54 54 52 49 47 44 43 42 45 47 45 45 45 45 47 47 47 50 51 48 45 45
1 2 2 6 8 8 8 10 15 12 4 4 12 12 4 6 8 8 9 11 13 14 17 19 18 16 17 20 23 28 29 31 32 33 34 35 36 36 35 35 35 35 33 33 38 42 43 44 44 42 42 41 40 40 40 41 41 40 36 34 32 31 32 31 31 34 36 40 47 49 51 54 55 54 54 57 58 53 51 50 46 44 43 45 48 49 49 46 46 48 48 50 52 52 50 47 47
1 2 1 6 9 10 12 13 14 11 4 6 12 10 2 5 6 9 7 7 11 15 19 20 19 18 20 23 25 28 30 31 32 35 36 37 39 38 38 40 39 38 37 36 38 40 43 45 45 44 44 43 42 41 40 42 42 42 41 38 37 35 34 34 32 34 35 36 43 49 49 49 55 59 56 56 57 55 53 52 49 46 45 45 48 51 48 45 46 47 48 52 53 53 51 51 51
3 1 2 6 8 10 13 13 9 9 9 5 8 6 7 5 3 10 8 7 9 13 15 16 17 19 22 24 27 31 33 35 36 39 42 43 44 43 43 43 41 41 41 40 41 43 45 46 46 46 45 44 44 43 42 42 43 43 42 42 40 37 36 36 34 34 36 36 38 45 50 48 52 58 57 55 54 53 53 51 49 48 47 46 50 52 49 46 46 45 47 52 52 53 53 54 55
2 2 3 6 9 11 13 11 7 7 9 7 2 6 8 7 1 9 7 7 9 12 13 14 17 21 25 27 31 33 34 36 38 42 44 45 45 45 45 43 42 42 42 42 44 47 48 48 48 48 48 46 46 46 44 43 44 43 43 43 42 40 38 36 35 34 35 35 35 40 49 50 51 55 56 55 55 52 50 51 50 50 50 48 51 53 49 48 46 43 46 51 51 51 52 54 56
2 4 4 6 7 10 10 9 9 7 6 7 4 4 5 6 2 7 6 7 10 13 13 14 18 22 27 29 32 35 36 38 40 42 44 44 44 45 45 44 44 43 43 45 47 48 48 50 50 50 50 49 48 48 46 44 44 43 42 42 43 43 41 37 35 33 33 34 34 36 44 49 50 54 56 56 59 56 52 54 53 52 53 52 52 54 51 48 47 45 47 51 53 52 51 52 54
4 5 5 6 7 9 8 7 8 6 4 8 4 2 3 6 2 1 4 6 8 11 10 12 18 23 27 31 35 38 40 40 40 41 41 42 44 45 44 44 44 44 44 45 46 46 47 49 50 50 50 50 49 49 48 45 44 44 43 42 43 44 43 40 35 32 31 34 35 35 39 46 49 52 57 58 59 59 53 54 56 55 55 54 53 54 52 49 48 48 48 50 53 53 52 52 53
5 4 4 7 7 8 7 5 4 3 4 5 2 4 3 5 2 1 4 4 6 9 10 12 19 26 31 35 37 38 38 37 39 40 40 42 44 44 44 44 45 46 45 45 45 45 46 48 49 50 51 51 51 50 49 47 45 44 44 42 41 43 44 42 37 33 30 31 34 36 37 43 50 51 53 57 60 58 53 53 56 57 56 55 53 53 52 50 50 50 52 51 50 51 53 53 52
4 3 7 8 6 5 5 3 1 2 3 2 6 3 4 7 1 5 5 5 7 9 11 14 20 28 33 34 35 35 34 37 40 40 40 42 44 44 44 45 46 47 46 46 47 47 46 47 47 48 49 51 52 51 51 49 46 45 45 43 41 40 43 43 40 36 33 31 32 33 35 38 48 54 53 55 61 59 54 55 57 56 56 55 55 54 52 50 50 51 54 53 49 49 54 54 52
3 5 6 6 6 5 4 3 2 5 4 6 5 4 6 9 2 7 7 6 9 10 14 17 21 27 30 31 32 32 33 38 40 40 41 43 44 44 44 45 47 48 48 47 48 49 49 48 46 46 48 50 51 52 52 51 49 47 45 44 42 39 40 43 41 38 35 33 32 31 33 35 39 50 56 58 63 63 57 57 58 57 57 57 57 56 53 52 52 51 53 54 51 51 54 54 54
5 3 3 4 5 6 7 6 5 6 4 5 1 4 6 9 2 8 6 6 8 14 19 19 20 24 28 30 31 32 34 39 41 41 42 42 44 46 45 47 48 49 50 50 49 49 49 49 46 45 47 49 49 50 52 51 50 49 46 45 43 39 39 42 42 40 37 35 34 32 31 32 34 41 54 62 66 67 61 57 60 60 58 59 60 57 54 53 54 54 54 55 55 57 58 56 56
4 3 1 2 2 5 6 5 5 7 9 6 4 3 4 5 3 9 5 5 10 18 20 17 20 25 29 31 31 33 35 39 41 42 43 44 46 46 47 50 52 53 54 52 50 49 50 50 48 46 47 48 47 47 51 52 51 49 48 46 45 40 37 40 42 41 38 37 35 34 32 32 34 38 45 58 62 62 62 59 59 61 60 60 61 57 55 56 56 57 57 57 58 59 60 59 58
3 2 2 3 1 3 5 3 1 5 11 8 4 4 3 1 7 9 2 7 15 20 19 20 24 29 31 32 32 34 37 41 43 44 46 45 45 47 51 54 56 57 57 55 53 52 52 51 50 49 47 47 47 47 49 51 50 50 49 47 45 42 38 38 41 42 39 38 37 34 32 33 35 37 41 54 61 56 58 60 57 60 61 60 60 57 55 57 57 59 60 59 60 60 59 58 57
2 1 2 0 2 1 4 3 1 3 8 7 3 5 4 1 6 5 3 11 16 16 18 23 29 32 34 34 35 37 40 44 46 47 47 48 52 57 60 60 58 58 59 57 56 54 53 53 51 50 48 46 47 46 47 47 47 50 51 46 44 42 39 38 40 42 41 39 38 35 32 32 35 36 38 49 63 58 58 62 59 60 63 61 59 57 56 58 57 59 61 60 61 62 60 58 57
1 2 1 2 3 3 1 2 2 4 7 6 6 9 8 4 2 2 6 14 16 16 20 26 32 35 35 37 39 41 44 47 48 48 48 52 59 64 64 62 59 57 57 57 56 54 53 52 49 47 47 46 46 47 45 45 45 49 51 47 43 42 40 38 39 41 43 41 39 37 32 32 34 34 34 38 56 62 59 62 61 61 64 62 60 59 57 58 58 58 60 61 61 61 60 59 56
1 1 1 1 2 2 3 1 3 6 7 7 8 10 8 5 2 3 9 15 16 19 22 25 30 34 36 39 41 44 46 48 50 49 51 57 63 65 63 61 59 57 57 56 55 53 52 51 48 46 47 46 46 47 45 44 45 49 51 46 42 42 40 38 38 39 42 42 39 38 35 32 33 34 33 33 45 62 61 61 62 62 64 63 60 61 60 59 60 59 60 62 61 60 61 59 55
3 1 2 0 1 2 2 0 1 5 7 7 9 10 5 1 2 6 12 14 15 20 21 22 27 33 37 39 41 44 47 50 52 52 55 59 62 62 60 58 56 55 54 52 50 49 47 46 45 44 45 46 45 45 43 43 44 47 50 47 42 42 40 38 38 38 40 42 39 38 36 33 34 34 33 32 38 58 64 61 64 63 64 65 62 62 63 61 61 61 62 63 61 60 60 58 55
4 4 4 2 2 2 2 1 2 3 6 5 7 9 5 3 3 7 11 12 15 20 21 21 27 34 38 39 41 46 50 52 54 55 57 58 57 58 58 56 54 52 51 51 50 51 50 48 47 45 44 43 43 43 42 42 44 47 50 49 44 42 41 39 38 38 39 42 40 38 37 34 34 34 34 33 35 51 66 62 64 65 63 66 65 63 65 63 62 63 63 62 59 58 60 59 55
5 5 4 4 4 2 3 4 2 2 4 4 5 11 8 1 1 4 7 12 17 22 24 24 29 35 39 40 43 49 53 54 55 55 56 56 54 54 55 55 56 56 55 54 53 54 53 50 49 51 48 44 42 41 41 41 43 46 48 48 46 42 41 40 38 38 38 40 41 38 37 35 34 33 34 33 33 44 67 65 62 65 63 64 67 65 65 65 63 64 63 61 60 59 60 60 57
Wind_Direction
21 18 9 12 77 153 134 202 222 131 244 45 55 347 101 103 307 284 251 217 286 225 225 246 197 183 198 253 271 291 281 260 270 270 289 303 299 299 298 298 298 299 297 276 250 233 230 232 234 234 235 235 237 240 240 235 229 230 234 235 235 234 234 237 241 245 246 245 248 253 257 261 261 257 257 256 255 257 261 263 265 265 262 257 251 248 245 242 241 239 234 227 226 230 226 226 218
18 23 6 12 68 159 189 243 271 65 251 84 74 7 45 132 258 318 351 348 341 6 274 234 209 209 226 257 269 279 264 247 255 261 272 287 293 296 298 298 295 292 280 252 231 220 223 226 230 234 236 237 240 242 242 240 235 233 234 235 236 235 234 237 241 244 246 247 252 256 259 263 263 260 259 260 256 256 261 266 269 269 264 256 250 246 245 240 237 235 230 225 227 231 225 220 212
19 27 26 33 71 120 193 235 308 350 355 41 54 72 40 312 325 348 350 344 337 314 289 225 217 229 233 250 255 261 272 259 262 264 271 288 295 299 306 304 294 281 261 245 229 222 229 234 236 234 236 238 241 243 242 241 239 237 236 236 236 235 235 239 241 243 243 248 254 256 257 259 260 259 256 259 258 254 257 266 272 270 266 262 255 248 245 238 232 229 225 224 226 231 226 215 207
21 33 51 60 165 135 198 241 1 330 9 20 18 76 15 321 332 332 329 329 319 296 266 221 231 239 237 256 274 265 269 270 278 276 274 294 301 303 309 304 292 274 258 250 243 243 249 254 252 243 239 238 239 241 242 241 240 240 239 238 236 234 237 241 241 241 242 245 251 253 255 256 257 256 256 256 256 254 254 257 260 261 260 261 261 253 246 237 228 223 223 223 224 230 224 209 205
20 36 53 74 200 250 282 219 45 313 18 11 331 34 3 327 321 318 316 317 312 288 235 227 262 257 247 256 264 263 273 278 292 293 288 301 309 308 306 301 292 277 265 256 254 254 257 261 258 250 243 240 239 239 240 241 241 240 241 240 237 235 237 240 240 240 240 241 244 248 250 252 255 255 253 249 248 249 251 251 252 254 253 255 258 256 248 238 225 218 222 224 225 230 218 201 199
14 35 57 90 126 105 228 299 12 356 45 348 319 4 355 342 324 318 314 318 311 270 229 227 272 288 270 252 248 256 276 287 296 300 300 305 310 307 303 298 289 281 274 264 260 257 258 260 255 249 245 242 241 240 240 241 241 241 242 241 239 238 239 239 239 238 237 238 239 242 244 247 249 249 245 242 243 243 245 248 249 249 250 252 253 255 250 241 225 216 223 225 227 230 216 200 195
4 13 58 105 105 51 277 359 355 12 75 250 330 345 346 356 330 317 319 332 359 250 231 233 269 287 279 270 267 273 284 291 296 305 308 309 310 307 303 295 287 282 278 270 263 258 258 258 252 247 245 244 243 242 241 241 242 242 242 241 241 241 241 239 239 238 237 237 237 239 242 247 248 246 243 242 243 243 243 245 247 246 248 252 252 252 249 243 226 217 224 226 228 224 208 197 194
359 317 259 214 116 3 312 354 328 356 89 214 300 294 315 336 317 304 317 331 335 309 258 255 268 274 283 276 269 289 303 307 306 316 320 317 315 309 303 295 287 282 278 273 266 261 259 256 253 249 247 246 245 246 244 243 243 242 242 241 241 240 240 240 239 238 238 237 237 238 239 244 247 246 245 243 243 244 244 245 247 245 247 250 252 250 248 244 225 218 227 229 228 216 200 194 195
345 324 243 246 164 123 308 286 284 307 251 237 266 262 280 306 293 271 298 307 297 301 275 268 253 258 297 292 277 293 310 320 323 328 331 327 322 317 311 301 288 281 277 274 269 264 260 256 254 252 250 248 246 247 247 247 246 244 242 242 241 239 240 241 239 239 239 237 235 236 238 242 245 246 247 246 244 244 246 247 247 246 246 247 251 250 247 243 223 218 230 231 225 211 199 196 197
307 333 239 212 203 272 266 213 165 199 265 281 276 272 273 289 277 258 283 309 310 301 289 290 259 256 288 297 291 303 319 328 332 335 337 332 327 323 318 310 296 284 277 273 270 266 261 257 255 253 251 249 248 248 249 249 249 247 243 242 241 240 241 242 241 240 240 238 234 236 239 242 245 248 247 245 244 245 248 251 249 247 244 243 248 248 245 240 223 220 231 231 221 206 200 197 196
273 340 313 228 272 308 343 318 313 322 311 310 272 263 283 280 254 255 256 299 311 292 283 289 276 265 284 289 288 313 329 331 337 339 334 327 323 320 317 313 305 292 282 275 269 267 263 260 256 254 252 250 251 251 252 250 250 249 244 242 241 240 241 242 242 242 241 239 236 238 240 242 246 249 248 244 243 245 249 252 251 248 244 243 246 246 243 237 224 224 232 233 218 204 201 198 194
275 13 264 255 352 336 355 317 311 322 307 298 119 131 345 248 251 312 315 313 311 297 284 265 288 299 293 290 293 320 335 337 339 334 327 325 322 320 316 313 308 299 290 281 274 269 265 263 259 256 254 253 254 254 252 250 250 250 246 242 242 240 240 242 242 242 242 240 239 241 243 244 247 249 247 243 242 245 248 252 253 249 245 244 245 245 242 234 224 226 233 234 220 207 202 197 194
291 80 271 257 39 326 16 297 308 319 302 100 52 81 16 323 309 332 331 312 300 299 303 277 289 296 283 289 300 324 342 336 333 329 326 324 322 320 317 314 310 302 294 287 280 274 269 265 263 261 258 256 257 256 253 250 249 251 249 244 242 242 240 240 242 242 241 240 241 243 245 245 246 247 246 244 243 245 248 252 253 250 247 246 246 246 241 230 222 225 232 232 219 204 194 191 191
262 216 280 73 79 251 230 276 317 319 359 76 54 124 336 320 318 328 322 314 311 301 306 303 292 277 278 293 309 332 337 328 327 325 325 323 321 320 316 314 310 305 298 291 285 280 274 269 265 263 261 260 258 257 255 252 250 251 250 245 242 243 242 241 241 243 242 241 243 243 245 246 246 247 246 245 243 244 248 252 252 251 249 246 246 246 242 230 220 225 232 231 217 200 190 187 189
196 198 273 144 153 206 208 264 351 308 9 57 49 98 273 295 324 315 308 316 314 304 305 306 287 276 317 316 313 323 323 322 324 324 326 328 328 327 323 319 314 309 302 294 288 284 279 275 270 266 263 262 261 259 257 255 253 252 250 246 242 243 244 244 243 243 241 241 243 243 244 246 247 246 245 246 244 244 248 251 253 252 249 245 246 247 246 235 223 225 224 222 217 201 192 188 189
167 181 260 194 181 230 174 195 281 269 352 19 21 12 316 314 346 320 314 310 298 303 306 300 280 282 304 300 305 319 324 325 327 328 330 335 341 340 336 331 325 318 310 301 292 287 282 278 275 270 266 265 263 262 261 259 255 252 250 246 243 242 243 246 246 243 241 240 242 243 245 247 247 246 245 247 247 246 248 251 253 251 249 245 246 247 247 240 227 226 219 211 211 203 196 192 189
196 203 252 215 188 206 162 193 285 323 332 342 47 19 333 340 357 328 324 309 291 304 308 309 305 299 310 317 325 332 333 333 332 332 332 335 343 343 340 337 333 328 321 313 302 293 286 282 278 274 270 266 265 264 264 261 256 252 249 247 245 243 242 245 247 245 241 239 241 242 245 247 246 246 245 246 247 247 248 251 252 250 249 248 248 246 246 244 230 228 224 212 207 200 197 195 190
254 224 262 230 162 138 146 172 37 328 324 326 325 359 340 338 347 328 323 307 290 306 315 327 332 331 337 340 341 340 340 342 340 336 333 332 337 341 340 337 333 330 326 321 313 303 293 287 281 277 273 269 265 264 265 262 256 252 249 247 245 244 242 243 247 246 243 240 241 243 246 247 246 246 245 243 244 246 248 250 252 251 250 250 252 249 248 245 231 222 218 214 208 200 197 193 187
274 225 273 242 115 94 108 132 64 324 320 319 318 341 341 334 342 329 323 312 306 314 336 353 350 350 350 346 343 340 343 346 347 345 343 342 343 343 341 338 335 331 329 326 321 311 301 293 285 279 276 272 267 264 264 261 256 252 249 248 246 244 242 242 245 246 244 240 240 244 246 247 246 246 245 242 240 242 248 251 251 249 247 251 254 255 256 248 235 221 211 208 202 194 192 185 177
234 238 279 69 100 103 213 218 233 306 311 309 312 326 327 336 353 328 311 310 318 0 11 5 354 351 349 345 342 340 341 345 351 357 358 358 357 354 349 346 342 337 334 331 327 318 309 303 295 287 280 275 269 265 263 261 257 253 250 248 247 244 243 242 244 244 243 241 239 243 246 246 246 245 244 242 240 242 246 247 247 246 243 246 253 260 259 248 243 226 208 198 190 183 182 173 164
177 238 312 77 112 283 161 203 273 289 300 298 302 309 313 334 344 318 301 314 350 23 9 3 351 346 345 342 340 338 339 343 352 1 5 6 5 2 359 356 353 348 343 337 332 325 319 313 306 297 288 280 273 268 265 262 259 256 252 250 247 244 242 241 242 242 241 241 239 242 244 243 243 243 243 241 239 240 241 239 239 239 237 237 244 252 250 247 234 208 181 174 176 173 171 166 161
215 233 299 89 148 311 97 115 293 304 304 295 295 303 317 319 320 308 299 311 358 6 1 1 352 347 344 341 339 337 340 347 352 1 8 12 13 11 9 6 4 1 355 349 341 333 327 319 312 304 295 287 279 273 268 265 262 259 256 252 248 244 242 239 239 240 239 240 240 242 242 241 240 240 240 239 237 236 235 233 229 228 232 234 235 238 227 188 173 173 151 149 161 163 161 160 160
271 225 253 227 192 269 61 116 286 301 300 291 289 302 313 302 302 311 290 287 327 357 5 359 351 348 345 342 341 342 353 3 6 13 18 21 21 19 17 15 13 10 7 2 354 346 337 326 317 308 300 293 286 278 271 266 263 262 259 256 251 246 243 239 239 240 239 240 240 241 240 238 237 237 237 235 234 233 230 228 225 224 230 232 227 228 210 173 157 159 156 151 151 156 162 162 164
258 252 257 257 187 240 277 262 286 283 273 276 285 296 296 290 306 301 293 307 345 11 5 354 349 350 349 344 344 353 10 22 25 26 27 27 25 23 22 21 18 15 13 8 3 358 350 340 328 318 309 301 292 285 276 268 265 264 261 257 253 248 244 241 241 241 240 240 239 239 237 236 237 236 235 233 232 231 228 223 224 226 227 228 218 211 201 186 175 161 166 183 163 160 170 168 169
214 276 321 300 231 226 265 278 278 259 259 270 278 294 299 334 330 280 305 35 32 7 355 355 359 357 352 350 1 17 28 33 32 29 28 27 26 24 22 20 18 16 15 12 8 4 359 352 342 331 320 310 301 294 285 272 266 265 261 256 254 249 245 243 242 241 240 240 238 236 235 235 236 236 234 232 232 231 228 221 223 228 225 226 216 198 189 177 167 156 157 178 181 183 183 172 168
210 293 313 300 298 300 286 275 246 227 257 262 271 300 308 13 337 242 93 46 14 357 352 4 10 3 1 15 33 41 42 37 32 29 28 27 25 24 21 18 15 14 11 11 10 6 3 359 354 346 331 321 309 296 290 278 267 265 261 255 254 249 245 245 241 240 240 239 236 234 234 235 235 236 234 232 231 230 229 224 223 231 227 225 221 198 182 170 158 154 156 165 173 185 186 173 169
312 302 302 291 289 300 279 166 159 179 193 188 277 312 313 340 311 134 75 21 2 355 354 10 16 20 31 49 54 48 44 38 33 31 28 26 24 22 19 17 15 13 9 7 6 5 4 2 1 356 347 336 317 294 287 281 268 266 262 257 254 249 247 245 240 239 240 238 236 234 233 235 235 236 235 233 232 228 228 226 221 228 228 221 218 201 182 177 169 164 166 168 168 177 180 175 176
312 311 304 288 277 220 152 129 91 98 135 163 251 305 315 321 313 68 33 5 358 352 358 22 36 51 58 62 55 48 44 37 33 30 26 21 18 16 15 15 13 12 11 8 4 1 1 0 1 0 357 351 334 309 292 283 273 269 267 263 256 252 250 244 238 239 240 237 235 234 233 234 235 235 234 232 231 227 226 226 220 222 225 218 210 202 192 183 174 168 166 168 167 168 172 177 183
300 316 306 301 309 153 141 91 33 86 107 127 241 292 319 115 37 49 11 356 350 346 9 47 61 66 65 60 53 50 43 35 31 26 22 17 14 12 11 10 10 10 9 8 5 1 358 357 358 359 358 356 347 328 305 290 280 274 271 267 261 259 258 250 241 238 239 238 235 233 233 233 234 234 232 230 229 226 225 226 223 219 223 220 210 206 200 183 172 171 167 165 165 166 170 176 181
286 300 277 315 338 149 131 77 25 53 103 49 315 311 353 1 42 50 355 348 343 349 38 72 73 69 62 57 54 49 39 32 29 23 19 15 12 10 8 7 7 7 6 4 3 2 360 356 354 355 356 355 350 338 319 299 285 278 277 269 261 262 262 259 252 242 238 238 235 233 232 232 233 232 230 227 227 227 225 226 223 219 220 220 212 207 201 186 175 174 173 169 167 170 173 176 182
295 247 185 355 353 315 23 59 37 49 90 6 345 326 334 338 9 2 342 345 339 359 71 84 69 67 60 56 53 44 37 31 26 20 16 13 10 8 6 4 3 3 3 2 1 360 359 356 352 351 351 352 350 342 326 305 288 278 279 273 263 261 259 260 260 251 242 239 237 234 231 231 231 231 230 227 226 228 227 224 220 217 218 218 211 200 195 190 183 178 178 178 173 172 176 180 186
330 333 307 14 356 311 340 55 70 45 5 351 356 336 324 324 335 335 336 341 345 38 85 78 65 66 58 54 48 39 32 26 21 17 13 11 9 7 4 2 2 1 0 359 358 357 356 355 352 349 346 346 347 344 333 310 292 280 278 276 268 265 263 259 258 251 244 242 240 236 232 230 230 230 230 228 228 229 228 223 217 215 217 218 211 202 197 192 188 182 180 183 178 175 179 183 187
46 18 332 336 333 315 327 73 88 33 357 356 18 332 316 302 317 324 329 348 40 83 82 68 68 64 56 53 43 34 28 22 18 14 11 9 7 5 3 1 1 0 359 357 355 354 353 352 351 349 345 342 341 340 337 322 300 287 283 281 271 266 266 262 257 249 244 245 244 240 234 229 229 231 229 229 229 228 228 225 219 215 216 218 215 213 207 196 191 184 179 184 183 178 181 184 184
346 355 328 314 314 310 315 317 68 24 354 324 312 269 305 306 312 320 332 25 79 89 73 68 69 60 56 47 36 33 27 21 15 12 10 8 6 5 2 1 360 359 358 356 353 352 350 349 348 347 344 340 337 336 334 329 315 295 286 285 275 264 261 260 260 255 249 248 246 243 238 230 229 230 228 228 229 228 228 226 223 217 215 217 218 216 208 196 191 186 180 184 184 181 183 183 179
314 320 318 308 304 293 300 306 0 8 342 313 312 308 324 315 314 332 7 68 86 83 73 71 64 56 51 38 33 30 22 17 12 8 7 5 5 4 2 1 360 359 356 354 351 349 348 346 345 344 343 340 337 334 330 327 324 311 294 286 280 270 264 259 257 257 254 250 248 247 242 235 230 229 228 227 227 227 227 227 227 222 216 216 216 213 207 197 191 187 184 186 184 181 183 180 174
301 305 300 295 303 286 288 301 338 358 335 322 334 336 332 324 330 6 57 77 74 71 74 70 60 53 42 34 32 23 16 13 7 3 2 2 1 1 0 359 358 358 357 354 350 347 346 344 342 341 342 342 339 335 330 325 324 321 310 295 285 280 275 263 253 252 254 250 248 248 244 238 233 229 228 229 226 226 227 227 227 226 221 216 213 212 209 204 194 187 187 190 184 179 182 180 174
287 294 287 291 304 292 294 302 332 10 340 325 336 329 332 336 342 42 82 74 62 64 68 66 57 50 40 36 30 19 13 6 0 358 357 357 357 357 357 355 354 354 354 355 352 348 344 341 339 338 339 342 343 339 335 331 327 325 320 307 293 284 283 273 257 250 249 248 248 247 244 239 235 230 228 230 228 226 228 227 227 227 223 217 214 213 211 206 197 189 189 192 186 179 181 181 177
280 298 304 302 306 304 299 289 316 12 342 319 329 329 338 338 338 70 87 70 65 63 63 63 50 42 37 33 24 13 5 358 355 354 353 353 352 353 353 352 350 348 348 351 352 349 345 340 336 336 336 339 343 342 338 334 329 326 321 312 300 286 278 278 270 258 249 248 249 247 245 240 236 233 229 230 229 227 228 226 225 227 225 219 216 215 212 205 197 192 190 193 191 184 181 180 179
301 318 308 302 322 319 299 239 356 359 329 319 331 327 325 328 2 89 87 77 77 68 66 63 45 39 32 24 15 5 358 355 354 352 351 350 348 347 348 348 347 343 342 344 347 348 346 342 337 333 333 335 339 341 340 337 332 325 318 312 307 294 279 272 274 270 259 252 250 250 248 243 239 238 232 229 230 230 229 227 224 226 226 221 216 214 210 205 199 196 194 194 192 186 183 180 182
331 346 314 307 338 334 310 243 330 324 288 310 325 313 302 326 88 90 85 86 82 66 62 56 44 41 31 19 9 2 357 353 351 350 349 347 345 343 343 343 342 339 337 337 341 344 344 343 339 334 331 332 335 338 339 338 334 327 318 309 305 298 284 273 270 270 266 257 252 250 250 247 242 240 234 227 229 230 228 228 224 224 226 223 219 215 209 205 201 197 196 196 193 186 182 181 184
45 53 344 320 326 318 299 303 318 315 274 346 339 317 297 120 116 112 98 88 70 46 43 39 37 36 24 12 4 360 357 352 350 349 347 346 344 342 342 341 339 336 334 332 334 338 340 339 338 335 332 329 330 334 336 337 336 333 326 313 306 302 293 284 276 274 271 261 253 247 247 247 242 240 235 228 227 228 226 227 225 224 226 224 221 217 210 205 203 200 196 197 196 188 183 181 183
287 108 352 311 306 304 303 310 325 319 294 47 15 333 282 98 109 138 121 75 53 35 31 28 26 24 13 6 1 357 355 352 350 348 347 346 345 343 342 342 340 336 333 330 327 330 334 334 334 334 331 330 329 330 332 334 336 338 338 331 323 318 309 299 289 283 281 272 259 249 245 245 240 237 237 230 224 223 223 224 224 225 226 224 220 215 208 205 204 203 200 198 198 193 185 183 184
282 109 313 297 296 303 310 317 330 308 296 9 24 307 269 318 76 132 115 74 54 33 30 25 18 13 6 2 0 357 355 352 350 348 347 346 345 342 341 340 338 334 331 329 326 325 327 328 330 330 328 328 329 330 331 331 331 334 338 338 334 328 319 308 296 287 283 279 271 257 247 244 239 235 237 234 226 221 220 222 224 226 226 223 218 213 210 210 206 203 202 201 200 196 189 185 185
280 15 308 296 303 307 310 315 305 285 300 312 257 233 267 299 111 131 110 66 43 25 23 18 10 6 2 0 358 355 354 352 350 348 346 343 341 338 336 334 333 331 330 328 326 325 324 324 324 325 325 324 325 327 330 331 329 329 332 335 334 330 324 315 304 292 282 279 278 265 250 244 241 237 234 232 227 224 224 225 227 227 224 221 216 213 213 211 206 202 202 202 202 199 193 190 188
335 347 288 276 293 297 298 298 288 289 315 303 253 208 260 281 149 123 96 48 22 14 12 9 5 2 359 355 354 353 353 352 349 345 341 338 335 333 331 329 328 327 326 327 326 323 321 321 320 321 321 321 321 322 326 329 328 325 326 329 332 331 327 320 309 297 290 286 282 273 256 245 243 240 235 231 229 228 231 231 228 223 221 219 216 215 214 211 209 206 203 202 203 203 199 194 192
326 314 267 263 280 284 279 274 287 304 295 283 280 152 267 280 262 104 76 52 15 3 4 4 0 357 355 354 354 353 350 347 343 338 335 332 329 327 326 325 325 324 323 323 322 319 317 318 318 317 318 318 318 318 319 324 327 324 321 323 327 330 329 324 313 301 299 296 286 280 266 249 241 237 233 232 233 231 230 231 227 221 220 219 216 216 214 212 212 210 207 204 203 204 203 198 195
292 300 311 306 294 280 270 272 296 296 270 265 177 102 339 294 271 57 72 64 18 2 359 357 355 355 355 355 351 347 343 340 335 331 329 327 324 323 323 322 322 321 320 319 318 316 314 314 315 314 313 314 314 315 314 316 321 322 319 318 321 326 328 327 319 306 305 304 292 285 278 256 240 234 231 230 230 228 226 226 224 220 219 218 215 215 214 211 212 213 210 204 201 204 206 202 199
277 359 354 329 305 272 256 261 182 233 283 171 145 101 315 276 251 99 102 68 27 12 3 356 356 355 352 349 344 340 338 334 329 327 326 323 321 321 321 321 320 319 317 316 315 314 311 310 311 310 309 309 310 311 311 311 314 319 318 313 314 319 324 327 323 312 306 308 302 292 286 270 245 233 230 228 225 224 225 225 223 218 217 217 216 216 216 212 213 214 208 202 202 205 206 205 203
18 29 7 335 322 317 286 283 249 265 268 154 141 15 305 269 248 121 118 59 26 12 6 0 356 350 344 340 336 334 333 329 326 324 323 320 319 319 319 318 318 317 315 313 312 311 309 307 306 305 303 305 306 307 309 307 306 312 315 311 309 313 318 322 323 317 308 306 308 299 288 281 259 235 226 228 228 225 223 221 220 218 217 218 219 217 216 214 213 213 209 204 205 205 204 204 205
34 31 15 344 331 321 300 307 312 290 269 168 172 338 284 268 219 133 108 46 19 8 7 0 349 340 335 333 330 329 329 326 324 323 321 320 318 317 317 317 316 315 313 312 310 308 307 305 303 302 300 300 300 301 304 305 302 305 311 309 305 307 312 317 320 319 313 305 306 302 285 274 271 251 229 225 227 223 220 219 217 217 217 218 219 218 215 213 212 213 212 209 207 206 203 202 203
67 89 15 293 286 285 288 319 327 305 305 282 241 219 247 287 143 139 113 34 11 5 2 350 338 334 332 329 326 327 327 324 324 323 322 321 319 318 317 315 313 312 311 310 308 307 305 303 300 299 298 296 296 296 298 301 300 299 306 307 303 302 305 311 316 317 315 309 305 304 289 267 266 265 241 224 220 218 218 220 218 216 218 218 217 218 214 213 213 212 212 212 209 208 206 202 202
102 121 251 255 225 262 276 308 317 290 302 294 222 202 241 87 125 139 106 8 5 359 349 338 333 332 331 328 326 327 326 325 325 324 323 323 322 321 319 315 310 309 310 308 306 306 303 302 299 297 295 293 293 293 293 296 297 296 300 304 301 298 300 304 311 314 314 311 307 305 296 274 262 268 256 229 219 220 221 221 218 216 218 218 215 215 214 214 215 213 212 211 207 205 205 203 202
132 213 264 75 100 259 276 282 189 252 280 279 257 273 282 144 134 132 29 359 355 346 337 333 331 331 331 329 328 329 327 326 325 324 324 324 323 320 317 314 310 307 308 307 306 305 302 301 299 295 293 292 291 291 290 290 292 294 297 301 299 295 296 299 305 311 312 311 309 306 299 282 267 268 265 234 220 224 224 219 218 216 216 217 214 213 212 213 214 212 210 208 204 203 203 203 204
215 262 358 86 146 145 151 267 298 283 271 270 277 284 289 285 228 107 7 350 344 339 336 332 332 334 332 329 331 331 329 327 325 324 323 323 322 318 314 313 311 308 308 308 307 305 304 302 300 295 292 292 291 290 288 286 288 291 294 297 296 293 292 295 301 307 310 310 309 308 301 287 271 263 267 246 220 217 220 217 217 216 212 212 213 211 210 210 211 209 207 206 204 203 203 204 205
33 298 40 67 228 182 135 174 297 290 280 283 291 295 294 281 295 9 346 344 343 338 335 331 331 333 330 329 331 331 329 327 326 324 322 321 318 315 313 312 312 311 310 310 309 307 305 303 300 296 292 291 292 291 287 284 286 289 293 295 294 292 289 290 297 302 306 309 309 309 304 291 278 262 262 263 231 216 216 215 215 214 210 210 211 210 208 208 208 207 205 203 204 205 205 204 204
89 125 140 212 282 208 183 129 272 269 275 282 298 313 312 185 75 351 336 345 343 334 332 329 327 328 327 328 329 330 330 327 324 322 319 318 315 313 313 314 315 316 314 314 314 313 313 310 307 302 296 292 290 289 286 282 284 287 291 294 292 290 288 285 292 297 300 305 307 309 307 295 284 267 256 269 249 220 214 213 211 210 209 209 209 207 206 207 207 207 205 203 203 206 205 204 204
169 188 187 188 140 153 220 233 173 237 265 267 288 296 278 133 56 342 332 342 339 330 328 323 323 325 326 326 328 329 328 324 321 320 318 316 315 316 317 316 318 319 315 314 311 309 309 308 307 306 304 301 294 289 286 282 284 288 290 292 291 289 287 282 287 293 295 302 305 307 309 299 287 273 255 267 266 226 212 211 209 208 209 208 207 206 205 205 206 207 207 205 205 206 206 204 204
215 214 190 169 148 145 258 258 162 171 240 237 267 280 276 263 356 322 334 337 332 327 323 321 323 325 326 326 328 328 325 321 320 320 319 317 318 320 319 316 317 316 313 313 312 310 309 306 302 298 299 303 302 297 292 285 285 289 289 291 292 289 285 280 282 289 291 297 301 304 310 304 289 278 257 259 275 238 214 211 211 209 208 207 206 207 205 203 204 206 207 207 207 207 206 205 205